Darstellungsparameter: Aktuell verwendete Einstellungen:
Skalierung der Graphiken ... ?
xyx+y,   Skalierungsfaktor:      Skalierung: Modus: x, Faktor: 1
Darstellungszeitraum ... ?
Vom - - bis: - -   Zeitraum: 28.12.2020 - 17.01.2021
Min/Max/Avg-Anzeige ... ?
Zeige MMA aktuell
Zeige MMA Monat
Zeige MMA alles
Zeige --A aktuell
Zeige --A Monat
Zeige --A alles
Keine MMA-Anzeige
MMA:
Average (ber die Originaldaten)
MMA-Basis: 23.02.2003 - 03.08.2020
Quicknavigation für Darstellung... ?
Tage:      1T, 2T, 3T, 5T -1T -2T -3T -5T +1T +2T +3T +5T
Wochen: 1W, 2W, 3W -1W -2W -3W +1W +2W +3W
Monate: 1M, 3M, 6M -1M -3M -6M +1M +3M +6M
Jahre:    1J, 3J, 5J, 10J -1J -3J -5J -10J +1J +3J +5J +10J
Nutze für die Darstellung ... ?
Originaldaten oder ...
Mittelwerte Minima Maxima auf...
Stundenbasis Tagesbasis Wochenbasis
Monatsbasis Jahresbasis      Datenbasis: Mittelwerte auf Stundenbasis
Darstellen als:
Statistik (Auto) Statistik J:M      Darstellung:
Zur Graphik,    zurück zur Übersicht aller Sensoren.
 
Tabellarische Datenbersicht: ?
 
Sensor: Nr:Datum:Temp:Abs-Feuchte:Windchill:Wind:
Aussen-T/F 1 28-12-2020 00:00:00 4.15 C 6.17 g/m*3 4.15 C 1.6 km/h
2 28-12-2020 01:00:00 4.11667 C 6.15 g/m*3 4.12 C 0.66667 km/h
3 28-12-2020 02:00:00 3.78333 C 6.02 g/m*3 3.78 C 0.53333 km/h
4 28-12-2020 03:00:00 3.66667 C 5.99 g/m*3 3.67 C 1.46667 km/h
5 28-12-2020 04:00:00 3.725 C 6.04 g/m*3 3.73 C 2.01667 km/h
6 28-12-2020 05:00:00 3.86667 C 6.11 g/m*3 3.87 C 0.8 km/h
7 28-12-2020 06:00:00 3.71667 C 6.03 g/m*3 3.72 C 1.06667 km/h
8 28-12-2020 07:00:00 3.08333 C 5.74 g/m*3 3.08 C 0.8 km/h
9 28-12-2020 08:00:00 2 C 5.33 g/m*3 2 C 2.4 km/h
10 28-12-2020 09:00:00 2.55 C 5.59 g/m*3 2.55 C 0.93333 km/h
11 28-12-2020 10:00:00 3.8 C 6.09 g/m*3 3.8 C 0 km/h
12 28-12-2020 11:00:00 4.59167 C 6.42 g/m*3 4.59 C 0.66667 km/h
13 28-12-2020 12:00:00 5.04167 C 6.49 g/m*3 5.04 C 3.33333 km/h
14 28-12-2020 13:00:00 5.59167 C 6.59 g/m*3 5.59 C 0.8 km/h
15 28-12-2020 14:00:00 5.675 C 6.68 g/m*3 5.68 C 1.06667 km/h
16 28-12-2020 15:00:00 5.15 C 6.45 g/m*3 5.15 C 3.48333 km/h
17 28-12-2020 16:00:00 4.68333 C 6.28 g/m*3 4.68 C 3.475 km/h
18 28-12-2020 17:00:00 4.01667 C 6.03 g/m*3 4.02 C 0.8 km/h
19 28-12-2020 18:00:00 3.81667 C 5.99 g/m*3 3.82 C 0.4 km/h
20 28-12-2020 19:00:00 3.21667 C 5.76 g/m*3 3.22 C 1.73333 km/h
21 28-12-2020 20:00:00 1.95 C 5.27 g/m*3 1.95 C 2 km/h
22 28-12-2020 21:00:00 2.64167 C 5.58 g/m*3 2.64 C 0 km/h
23 28-12-2020 22:00:00 1.64167 C 5.2 g/m*3 1.64 C 2.13333 km/h
24 28-12-2020 23:00:00 1.70833 C 5.25 g/m*3 1.71 C 2.13333 km/h
25 29-12-2020 00:00:00 2.58333 C 5.59 g/m*3 2.58 C 1.875 km/h
Sensor: Nr:Datum:Temp:Abs-Feuchte:Windchill:Wind:
Aussen-T/F 26 29-12-2020 01:00:00 2.6 C 5.56 g/m*3 2.6 C 0.8 km/h
27 29-12-2020 02:00:00 2.58333 C 5.55 g/m*3 2.58 C 3.33333 km/h
28 29-12-2020 03:00:00 1.86667 C 5.26 g/m*3 1.87 C 2.4 km/h
29 29-12-2020 04:00:00 2 C 5.35 g/m*3 2 C 0 km/h
30 29-12-2020 05:00:00 2.39167 C 5.48 g/m*3 2.39 C 0 km/h
31 29-12-2020 06:00:00 2.38333 C 5.5 g/m*3 2.38 C 1.73333 km/h
32 29-12-2020 07:00:00 2.64167 C 5.63 g/m*3 1.26 C 5.35833 km/h
33 29-12-2020 08:00:00 2.93333 C 5.74 g/m*3 2.93 C 4.28333 km/h
34 29-12-2020 09:00:00 3.2 C 5.83 g/m*3 0.96 C 8.2 km/h
35 29-12-2020 10:00:00 3.53333 C 5.9 g/m*3 2.08 C 5.89167 km/h
36 29-12-2020 11:00:00 4.03333 C 5.9 g/m*3 0.75 C 13.83333 km/h
37 29-12-2020 12:00:00 4.78333 C 5.98 g/m*3 1.42 C 15.43333 km/h
38 29-12-2020 13:00:00 5.00833 C 5.91 g/m*3 1.88 C 14.23333 km/h
39 29-12-2020 14:00:00 5 C 5.9 g/m*3 3.05 C 8.31667 km/h
40 29-12-2020 15:00:00 4.90833 C 6.05 g/m*3 4.91 C 2.81667 km/h
41 29-12-2020 16:00:00 4.35833 C 5.97 g/m*3 4.36 C 2.4 km/h
42 29-12-2020 17:00:00 3.85 C 5.85 g/m*3 3.85 C 1.73333 km/h
43 29-12-2020 18:00:00 3.13333 C 5.56 g/m*3 3.13 C 1.86667 km/h
44 29-12-2020 19:00:00 2.00833 C 5.22 g/m*3 2.01 C 2.66667 km/h
45 29-12-2020 20:00:00 1.83333 C 5.24 g/m*3 1.83 C 0 km/h
46 29-12-2020 21:00:00 1.65833 C 5.17 g/m*3 1.66 C 0.4 km/h
47 29-12-2020 22:00:00 1.16667 C 5.03 g/m*3 1.17 C 1.2 km/h
48 29-12-2020 23:00:00 1.39167 C 5.12 g/m*3 1.39 C 0 km/h
49 30-12-2020 00:00:00 1.925 C 5.32 g/m*3 1.93 C 0 km/h
50 30-12-2020 01:00:00 2.025 C 5.34 g/m*3 2.03 C 0 km/h
Sensor: Nr:Datum:Temp:Abs-Feuchte:Windchill:Wind:
Aussen-T/F 51 30-12-2020 02:00:00 2.26667 C 5.47 g/m*3 2.27 C 0 km/h
52 30-12-2020 03:00:00 2.54167 C 5.59 g/m*3 2.54 C 0 km/h
53 30-12-2020 04:00:00 2.61667 C 5.62 g/m*3 2.62 C 0 km/h
54 30-12-2020 05:00:00 2.78333 C 5.68 g/m*3 2.78 C 0 km/h
55 30-12-2020 06:00:00 2.96667 C 5.75 g/m*3 2.97 C 0 km/h
56 30-12-2020 07:00:00 3.45833 C 5.95 g/m*3 3.46 C 1.6 km/h
57 30-12-2020 08:00:00 3.625 C 6.01 g/m*3 3.63 C 1.2 km/h
58 30-12-2020 09:00:00 3.78333 C 6.08 g/m*3 3.78 C 1.6 km/h
59 30-12-2020 10:00:00 4.2 C 6.25 g/m*3 4.2 C 2.26667 km/h
60 30-12-2020 11:00:00 4.45 C 6.26 g/m*3 2.95 C 6.43333 km/h
61 30-12-2020 12:00:00 4.75 C 6.18 g/m*3 2.65 C 8.74167 km/h
62 30-12-2020 13:00:00 5.06667 C 5.93 g/m*3 3.27 C 7.78333 km/h
63 30-12-2020 14:00:00 5.675 C 6.07 g/m*3 5.68 C 4.54167 km/h
64 30-12-2020 15:00:00 5.79167 C 5.95 g/m*3 4.23 C 7.375 km/h
65 30-12-2020 16:00:00 5.475 C 5.92 g/m*3 3.68 C 8.05 km/h
66 30-12-2020 17:00:00 4.9 C 5.72 g/m*3 3.22 C 7.24167 km/h
67 30-12-2020 18:00:00 4.65 C 5.7 g/m*3 2.37 C 9.41667 km/h
68 30-12-2020 19:00:00 4.34167 C 5.71 g/m*3 3.2 C 5.35 km/h
69 30-12-2020 20:00:00 4.28333 C 5.7 g/m*3 2.89 C 6.04167 km/h
70 30-12-2020 21:00:00 4.23333 C 5.7 g/m*3 4.23 C 4.55 km/h
71 30-12-2020 22:00:00 4 C 5.66 g/m*3 4 C 2 km/h
72 30-12-2020 23:00:00 4.01667 C 5.7 g/m*3 4.02 C 1.875 km/h
73 31-12-2020 00:00:00 4.03333 C 5.68 g/m*3 4.03 C 1.46667 km/h
74 31-12-2020 01:00:00 3.43333 C 5.53 g/m*3 3.43 C 0.66667 km/h
75 31-12-2020 02:00:00 3.175 C 5.51 g/m*3 3.18 C 1.46667 km/h
Sensor: Nr:Datum:Temp:Abs-Feuchte:Windchill:Wind:
Aussen-T/F 76 31-12-2020 03:00:00 2.84167 C 5.4 g/m*3 2.84 C 0.66667 km/h
77 31-12-2020 04:00:00 2.78333 C 5.39 g/m*3 2.78 C 0 km/h
78 31-12-2020 05:00:00 2.80833 C 5.44 g/m*3 2.81 C 0.26667 km/h
79 31-12-2020 06:00:00 2.95833 C 5.56 g/m*3 2.96 C 0 km/h
80 31-12-2020 07:00:00 2.79167 C 5.51 g/m*3 2.79 C 1.06667 km/h
81 31-12-2020 08:00:00 2.69167 C 5.47 g/m*3 2.69 C 2.53333 km/h
82 31-12-2020 09:00:00 2.68333 C 5.48 g/m*3 2.68 C 1.06667 km/h
83 31-12-2020 10:00:00 3.16667 C 5.66 g/m*3 3.17 C 0.93333 km/h
84 31-12-2020 11:00:00 3.75833 C 5.72 g/m*3 3.76 C 3.6 km/h
85 31-12-2020 12:00:00 4.05 C 5.77 g/m*3 4.05 C 3.21667 km/h
86 31-12-2020 13:00:00 3.79167 C 5.75 g/m*3 3.79 C 1.2 km/h
87 31-12-2020 14:00:00 3.85833 C 5.82 g/m*3 3.86 C 0.53333 km/h
88 31-12-2020 15:00:00 3.59167 C 5.71 g/m*3 3.59 C 0.66667 km/h
89 31-12-2020 16:00:00 3 C 5.56 g/m*3 3 C 0.26667 km/h
90 31-12-2020 17:00:00 2.73333 C 5.52 g/m*3 2.73 C 0.13333 km/h
91 31-12-2020 18:00:00 2.71667 C 5.54 g/m*3 2.72 C 0 km/h
92 31-12-2020 19:00:00 2.625 C 5.51 g/m*3 2.63 C 0.26667 km/h
93 31-12-2020 20:00:00 2.38333 C 5.42 g/m*3 2.38 C 0 km/h
94 31-12-2020 21:00:00 2.225 C 5.4 g/m*3 2.23 C 0 km/h
95 31-12-2020 22:00:00 2.15 C 5.37 g/m*3 2.15 C 0 km/h
96 31-12-2020 23:00:00 1.26667 C 5.02 g/m*3 1.27 C 0 km/h
97 01-01-2021 00:00:00 1.1 C 5.01 g/m*3 1.1 C 0 km/h
98 01-01-2021 01:00:00 1.16667 C 5.04 g/m*3 1.17 C 0 km/h
99 01-01-2021 02:00:00 1.425 C 5.13 g/m*3 1.43 C 0 km/h
100 01-01-2021 03:00:00 1.725 C 5.25 g/m*3 1.73 C 0.13333 km/h
Sensor: Nr:Datum:Temp:Abs-Feuchte:Windchill:Wind:
Aussen-T/F 101 01-01-2021 04:00:00 1.88333 C 5.35 g/m*3 1.88 C 1.46667 km/h
102 01-01-2021 05:00:00 2.05833 C 5.41 g/m*3 2.06 C 0.53333 km/h
103 01-01-2021 06:00:00 2.24167 C 5.48 g/m*3 2.24 C 0 km/h
104 01-01-2021 07:00:00 2.425 C 5.55 g/m*3 2.42 C 0.26667 km/h
105 01-01-2021 08:00:00 2.5 C 5.58 g/m*3 2.5 C 0.26667 km/h
106 01-01-2021 09:00:00 2.55 C 5.59 g/m*3 2.55 C 0 km/h
107 01-01-2021 10:00:00 2.73333 C 5.66 g/m*3 2.73 C 0 km/h
108 01-01-2021 11:00:00 2.99167 C 5.76 g/m*3 2.99 C 2.53333 km/h
109 01-01-2021 12:00:00 2.95 C 5.75 g/m*3 2.95 C 2 km/h
110 01-01-2021 13:00:00 3.025 C 5.72 g/m*3 3.03 C 2 km/h
111 01-01-2021 14:00:00 3.075 C 5.74 g/m*3 3.08 C 0.53333 km/h
112 01-01-2021 15:00:00 3.13333 C 5.76 g/m*3 3.13 C 1.2 km/h
113 01-01-2021 16:00:00 2.9 C 5.67 g/m*3 2.9 C 0.8 km/h
114 01-01-2021 17:00:00 2.68333 C 5.59 g/m*3 2.68 C 0 km/h
115 01-01-2021 18:00:00 2.525 C 5.53 g/m*3 2.53 C 0 km/h
116 01-01-2021 19:00:00 1.80833 C 5.27 g/m*3 1.81 C 0 km/h
117 01-01-2021 20:00:00 1.26667 C 5.07 g/m*3 1.27 C 0 km/h
118 01-01-2021 21:00:00 0.8 C 4.91 g/m*3 0.8 C 0 km/h
119 01-01-2021 22:00:00 0.60833 C 4.88 g/m*3 0.61 C 0 km/h
120 01-01-2021 23:00:00 0.76667 C 4.95 g/m*3 0.77 C 0 km/h
121 02-01-2021 00:00:00 0.80833 C 4.97 g/m*3 0.81 C 1.2 km/h
122 02-01-2021 01:00:00 0.75 C 4.95 g/m*3 0.75 C 1.33333 km/h
123 02-01-2021 02:00:00 0.75833 C 4.95 g/m*3 0.76 C 0 km/h
124 02-01-2021 03:00:00 0.675 C 4.92 g/m*3 0.68 C 0.8 km/h
125 02-01-2021 04:00:00 0.375 C 4.82 g/m*3 0.38 C 2 km/h
Sensor: Nr:Datum:Temp:Abs-Feuchte:Windchill:Wind:
Aussen-T/F 126 02-01-2021 05:00:00 0.325 C 4.81 g/m*3 0.33 C 3.06667 km/h
127 02-01-2021 06:00:00 0.425 C 4.84 g/m*3 0.43 C 3.46667 km/h
128 02-01-2021 07:00:00 0.40833 C 4.83 g/m*3 0.41 C 3.86667 km/h
129 02-01-2021 08:00:00 0.4 C 4.83 g/m*3 0.4 C 1.86667 km/h
130 02-01-2021 09:00:00 0.53333 C 4.88 g/m*3 0.53 C 1.06667 km/h
131 02-01-2021 10:00:00 0.81667 C 4.97 g/m*3 0.82 C 0.8 km/h
132 02-01-2021 11:00:00 1.3 C 5.13 g/m*3 1.3 C 0.4 km/h
133 02-01-2021 12:00:00 1.85 C 5.27 g/m*3 1.85 C 0.8 km/h
134 02-01-2021 13:00:00 2.23333 C 5.33 g/m*3 2.23 C 1.33333 km/h
135 02-01-2021 14:00:00 2.425 C 5.38 g/m*3 2.42 C 0.66667 km/h
136 02-01-2021 15:00:00 2.65 C 5.46 g/m*3 2.65 C 1.6 km/h
137 02-01-2021 16:00:00 2.525 C 5.41 g/m*3 2.53 C 0.4 km/h
138 02-01-2021 17:00:00 2.18333 C 5.34 g/m*3 2.18 C 0.4 km/h
139 02-01-2021 18:00:00 2.03333 C 5.29 g/m*3 2.03 C 0 km/h
140 02-01-2021 19:00:00 1.95833 C 5.3 g/m*3 1.96 C 0 km/h
141 02-01-2021 20:00:00 1.9 C 5.3 g/m*3 1.9 C 0 km/h
142 02-01-2021 21:00:00 1.89167 C 5.3 g/m*3 1.89 C 0 km/h
143 02-01-2021 22:00:00 1.8 C 5.26 g/m*3 1.8 C 0 km/h
144 02-01-2021 23:00:00 1.8 C 5.26 g/m*3 1.8 C 0 km/h
145 03-01-2021 00:00:00 1.88333 C 5.29 g/m*3 1.88 C 0 km/h
146 03-01-2021 01:00:00 1.8 C 5.26 g/m*3 1.8 C 3.20833 km/h
147 03-01-2021 02:00:00 1.74167 C 5.18 g/m*3 1.74 C 1.73333 km/h
148 03-01-2021 03:00:00 2.04167 C 5.04 g/m*3 2.04 C 2.53333 km/h
149 03-01-2021 04:00:00 2.26667 C 5.06 g/m*3 2.27 C 2.66667 km/h
150 03-01-2021 05:00:00 2.11667 C 5.09 g/m*3 2.12 C 0.66667 km/h
Sensor: Nr:Datum:Temp:Abs-Feuchte:Windchill:Wind:
Aussen-T/F 151 03-01-2021 06:00:00 2.05833 C 5.1 g/m*3 2.06 C 0.93333 km/h
152 03-01-2021 07:00:00 1.99167 C 5.03 g/m*3 1.99 C 1.46667 km/h
153 03-01-2021 08:00:00 2.29167 C 4.99 g/m*3 2.29 C 1.73333 km/h
154 03-01-2021 09:00:00 2.375 C 5.09 g/m*3 2.38 C 0 km/h
155 03-01-2021 10:00:00 2.60833 C 5.12 g/m*3 2.61 C 1.60833 km/h
156 03-01-2021 11:00:00 3.08333 C 5.17 g/m*3 3.08 C 3.875 km/h
157 03-01-2021 12:00:00 3.375 C 5.2 g/m*3 1.53 C 6.975 km/h
158 03-01-2021 13:00:00 3.49167 C 5.26 g/m*3 3.49 C 3.74167 km/h
159 03-01-2021 14:00:00 3.71667 C 5.34 g/m*3 2.39 C 5.61667 km/h
160 03-01-2021 15:00:00 3.75 C 5.42 g/m*3 3.75 C 3.2 km/h
161 03-01-2021 16:00:00 3.51667 C 5.43 g/m*3 3.52 C 4.00833 km/h
162 03-01-2021 17:00:00 3.25833 C 5.43 g/m*3 3.26 C 0.93333 km/h
163 03-01-2021 18:00:00 2.925 C 5.43 g/m*3 2.93 C 0.26667 km/h
164 03-01-2021 19:00:00 2.66667 C 5.41 g/m*3 2.67 C 0.53333 km/h
165 03-01-2021 20:00:00 2.51667 C 5.41 g/m*3 2.52 C 0.13333 km/h
166 03-01-2021 21:00:00 2.46667 C 5.39 g/m*3 2.47 C 0.4 km/h
167 03-01-2021 22:00:00 2.375 C 5.36 g/m*3 2.38 C 0 km/h
168 03-01-2021 23:00:00 2.3 C 5.34 g/m*3 2.3 C 0 km/h
169 04-01-2021 00:00:00 2.225 C 5.36 g/m*3 2.23 C 0 km/h
170 04-01-2021 01:00:00 2.06667 C 5.3 g/m*3 2.07 C 0 km/h
171 04-01-2021 02:00:00 1.85833 C 5.23 g/m*3 1.86 C 0.13333 km/h
172 04-01-2021 03:00:00 1.78333 C 5.2 g/m*3 1.78 C 0.13333 km/h
173 04-01-2021 04:00:00 1.63333 C 5.19 g/m*3 1.63 C 0 km/h
174 04-01-2021 05:00:00 1.39167 C 5.1 g/m*3 1.39 C 0 km/h
175 04-01-2021 06:00:00 1.06667 C 4.99 g/m*3 1.07 C 0 km/h
Sensor: Nr:Datum:Temp:Abs-Feuchte:Windchill:Wind:
Aussen-T/F 176 04-01-2021 07:00:00 0.90833 C 4.95 g/m*3 0.91 C 0 km/h
177 04-01-2021 08:00:00 0.96667 C 4.97 g/m*3 0.97 C 0 km/h
178 04-01-2021 09:00:00 1.14167 C 5.03 g/m*3 1.14 C 0 km/h
179 04-01-2021 10:00:00 1.31667 C 5.09 g/m*3 1.32 C 0.13333 km/h
180 04-01-2021 11:00:00 1.60833 C 5.23 g/m*3 1.61 C 0 km/h
181 04-01-2021 12:00:00 1.81667 C 5.32 g/m*3 1.82 C 0.13333 km/h
182 04-01-2021 13:00:00 1.975 C 5.38 g/m*3 1.98 C 0.53333 km/h
183 04-01-2021 14:00:00 2.025 C 5.4 g/m*3 2.03 C 0.26667 km/h
184 04-01-2021 15:00:00 2 C 5.39 g/m*3 2 C 0.26667 km/h
185 04-01-2021 16:00:00 1.93333 C 5.37 g/m*3 1.93 C 0 km/h
186 04-01-2021 17:00:00 1.80833 C 5.32 g/m*3 1.81 C 0 km/h
187 04-01-2021 18:00:00 1.8 C 5.32 g/m*3 1.8 C 0.66667 km/h
188 04-01-2021 19:00:00 1.8 C 5.32 g/m*3 1.8 C 1.06667 km/h
189 04-01-2021 20:00:00 1.75 C 5.3 g/m*3 1.75 C 0 km/h
190 04-01-2021 21:00:00 1.70833 C 5.28 g/m*3 1.71 C 0 km/h
191 04-01-2021 22:00:00 1.775 C 5.31 g/m*3 1.78 C 0 km/h
192 04-01-2021 23:00:00 1.8 C 5.32 g/m*3 1.8 C 0.53333 km/h
193 05-01-2021 00:00:00 1.84167 C 5.33 g/m*3 1.84 C 0.4 km/h
194 05-01-2021 01:00:00 1.9 C 5.35 g/m*3 1.9 C 0.4 km/h
195 05-01-2021 02:00:00 1.9 C 5.35 g/m*3 1.9 C 0.53333 km/h
196 05-01-2021 03:00:00 1.99167 C 5.38 g/m*3 1.99 C 0.13333 km/h
197 05-01-2021 04:00:00 2.1 C 5.37 g/m*3 2.1 C 0 km/h
198 05-01-2021 05:00:00 2.08333 C 5.36 g/m*3 2.08 C 0 km/h
199 05-01-2021 06:00:00 2.1 C 5.37 g/m*3 2.1 C 0 km/h
200 05-01-2021 07:00:00 2.08333 C 5.36 g/m*3 2.08 C 0.26667 km/h
Sensor: Nr:Datum:Temp:Abs-Feuchte:Windchill:Wind:
Aussen-T/F 201 05-01-2021 08:00:00 2.05 C 5.35 g/m*3 2.05 C 0.13333 km/h
202 05-01-2021 09:00:00 2.15 C 5.39 g/m*3 2.15 C 0.13333 km/h
203 05-01-2021 10:00:00 2.34167 C 5.46 g/m*3 2.34 C 0.93333 km/h
204 05-01-2021 11:00:00 2.65833 C 5.49 g/m*3 2.66 C 1.2 km/h
205 05-01-2021 12:00:00 2.88333 C 5.48 g/m*3 2.88 C 4.54167 km/h
206 05-01-2021 13:00:00 3.03333 C 5.54 g/m*3 3.03 C 0.26667 km/h
207 05-01-2021 14:00:00 3.25 C 5.62 g/m*3 3.25 C 0 km/h
208 05-01-2021 15:00:00 3.3 C 5.64 g/m*3 3.3 C 0 km/h
209 05-01-2021 16:00:00 3.20833 C 5.61 g/m*3 3.21 C 0 km/h
210 05-01-2021 17:00:00 3.05 C 5.59 g/m*3 3.05 C 0 km/h
211 05-01-2021 18:00:00 2.90833 C 5.56 g/m*3 2.91 C 0 km/h
212 05-01-2021 19:00:00 2.9 C 5.61 g/m*3 2.9 C 0 km/h
213 05-01-2021 20:00:00 2.9 C 5.61 g/m*3 2.9 C 0 km/h
214 05-01-2021 21:00:00 2.9 C 5.61 g/m*3 2.9 C 0 km/h
215 05-01-2021 22:00:00 2.68333 C 5.52 g/m*3 2.68 C 0 km/h
216 05-01-2021 23:00:00 2.36667 C 5.43 g/m*3 2.37 C 0.26667 km/h
217 06-01-2021 00:00:00 2.66667 C 5.54 g/m*3 2.67 C 0 km/h
218 06-01-2021 01:00:00 2.69167 C 5.55 g/m*3 2.69 C 4.425 km/h
219 06-01-2021 02:00:00 2.35 C 5.41 g/m*3 2.35 C 2.8 km/h
220 06-01-2021 03:00:00 2.15 C 5.37 g/m*3 2.15 C 0.13333 km/h
221 06-01-2021 04:00:00 1.68333 C 5.2 g/m*3 1.68 C 0 km/h
222 06-01-2021 05:00:00 1.95833 C 5.32 g/m*3 1.96 C 0.26667 km/h
223 06-01-2021 06:00:00 2.14167 C 5.39 g/m*3 2.14 C 0 km/h
224 06-01-2021 07:00:00 2.2 C 5.44 g/m*3 2.2 C 1.2 km/h
225 06-01-2021 08:00:00 2.15 C 5.41 g/m*3 2.15 C 0 km/h
Sensor: Nr:Datum:Temp:Abs-Feuchte:Windchill:Wind:
Aussen-T/F 226 06-01-2021 09:00:00 2.24167 C 5.47 g/m*3 2.24 C 0 km/h
227 06-01-2021 10:00:00 2.65833 C 5.64 g/m*3 2.66 C 0.13333 km/h
228 06-01-2021 11:00:00 3.175 C 5.83 g/m*3 3.18 C 0.4 km/h
229 06-01-2021 12:00:00 3.525 C 5.9 g/m*3 3.53 C 1.86667 km/h
230 06-01-2021 13:00:00 3.76667 C 5.85 g/m*3 2.25 C 6.15 km/h
231 06-01-2021 14:00:00 3.8 C 5.72 g/m*3 2.38 C 5.9 km/h
232 06-01-2021 15:00:00 3.875 C 5.74 g/m*3 3.88 C 2.93333 km/h
233 06-01-2021 16:00:00 3.65833 C 5.67 g/m*3 3.66 C 4.66667 km/h
234 06-01-2021 17:00:00 3.325 C 5.59 g/m*3 3.33 C 4.00833 km/h
235 06-01-2021 18:00:00 2.99167 C 5.47 g/m*3 2.99 C 4.26667 km/h
236 06-01-2021 19:00:00 2.8 C 5.45 g/m*3 2.8 C 4.4 km/h
237 06-01-2021 20:00:00 2.75 C 5.38 g/m*3 1.44 C 5.225 km/h
238 06-01-2021 21:00:00 2.5 C 5.28 g/m*3 2.5 C 4.55 km/h
239 06-01-2021 22:00:00 2.35 C 5.16 g/m*3 0.98 C 5.23333 km/h
240 06-01-2021 23:00:00 2.19167 C 5.07 g/m*3 2.19 C 3.475 km/h
241 07-01-2021 00:00:00 2.09167 C 4.99 g/m*3 -0.05 C 7.24167 km/h
242 07-01-2021 01:00:00 1.83333 C 4.98 g/m*3 1.83 C 1.33333 km/h
243 07-01-2021 02:00:00 1.45833 C 4.94 g/m*3 1.46 C 0.66667 km/h
244 07-01-2021 03:00:00 1.25833 C 4.91 g/m*3 1.26 C 0 km/h
245 07-01-2021 04:00:00 1.21667 C 4.93 g/m*3 1.22 C 0 km/h
246 07-01-2021 05:00:00 1.34167 C 4.98 g/m*3 1.34 C 1.06667 km/h
247 07-01-2021 06:00:00 1.5 C 4.97 g/m*3 1.5 C 3.06667 km/h
248 07-01-2021 07:00:00 1.73333 C 4.98 g/m*3 0.17 C 5.475 km/h
249 07-01-2021 08:00:00 1.73333 C 4.94 g/m*3 -0.14 C 6.29167 km/h
250 07-01-2021 09:00:00 1.9 C 4.95 g/m*3 0.3 C 5.625 km/h
Sensor: Nr:Datum:Temp:Abs-Feuchte:Windchill:Wind:
Aussen-T/F 251 07-01-2021 10:00:00 2.18333 C 5.04 g/m*3 2.18 C 4.00833 km/h
252 07-01-2021 11:00:00 2.7 C 5.13 g/m*3 0.79 C 6.83333 km/h
253 07-01-2021 12:00:00 2.71667 C 5.17 g/m*3 0.07 C 9.41667 km/h
254 07-01-2021 13:00:00 2.68333 C 5.38 g/m*3 0.51 C 7.65833 km/h
255 07-01-2021 14:00:00 2.84167 C 5.42 g/m*3 0.83 C 7.24167 km/h
256 07-01-2021 15:00:00 2.45 C 5.33 g/m*3 0.45 C 6.975 km/h
257 07-01-2021 16:00:00 2.4 C 5.31 g/m*3 0.1 C 7.91667 km/h
258 07-01-2021 17:00:00 2.36667 C 5.33 g/m*3 0.49 C 6.575 km/h
259 07-01-2021 18:00:00 2.375 C 5.35 g/m*3 0.03 C 8.05833 km/h
260 07-01-2021 19:00:00 2.2 C 5.33 g/m*3 0.08 C 7.23333 km/h
261 07-01-2021 20:00:00 2.1 C 5.31 g/m*3 0.19 C 6.56667 km/h
262 07-01-2021 21:00:00 1.89167 C 5.19 g/m*3 -0.58 C 8.2 km/h
263 07-01-2021 22:00:00 1.9 C 5.16 g/m*3 -0.72 C 8.73333 km/h
264 07-01-2021 23:00:00 1.93333 C 5.14 g/m*3 -0.75 C 9.00833 km/h
265 08-01-2021 00:00:00 1.73333 C 5.12 g/m*3 -1.26 C 10.08333 km/h
266 08-01-2021 01:00:00 1.63333 C 5.13 g/m*3 -0.72 C 7.65833 km/h
267 08-01-2021 02:00:00 1.76667 C 5.15 g/m*3 -0.39 C 7.125 km/h
268 08-01-2021 03:00:00 1.8 C 5.15 g/m*3 -1.02 C 9.425 km/h
269 08-01-2021 04:00:00 1.84167 C 5.17 g/m*3 -0.93 C 9.28333 km/h
270 08-01-2021 05:00:00 1.84167 C 5.21 g/m*3 -0.79 C 8.75833 km/h
271 08-01-2021 06:00:00 1.79167 C 5.2 g/m*3 -0.22 C 6.69167 km/h
272 08-01-2021 07:00:00 1.71667 C 5.19 g/m*3 1.72 C 4.54167 km/h
273 08-01-2021 08:00:00 1.6 C 5.19 g/m*3 1.6 C 4.94167 km/h
274 08-01-2021 09:00:00 1.63333 C 5.2 g/m*3 1.63 C 4.26667 km/h
275 08-01-2021 10:00:00 1.89167 C 5.3 g/m*3 1.89 C 2.66667 km/h
Sensor: Nr:Datum:Temp:Abs-Feuchte:Windchill:Wind:
Aussen-T/F 276 08-01-2021 11:00:00 2.2 C 5.4 g/m*3 2.2 C 2.66667 km/h
277 08-01-2021 12:00:00 2.525 C 5.47 g/m*3 2.53 C 2.66667 km/h
278 08-01-2021 13:00:00 2.50833 C 5.46 g/m*3 2.51 C 0.53333 km/h
279 08-01-2021 14:00:00 2.54167 C 5.47 g/m*3 2.54 C 2.53333 km/h
280 08-01-2021 15:00:00 2.475 C 5.41 g/m*3 2.48 C 2.26667 km/h
281 08-01-2021 16:00:00 2.33333 C 5.36 g/m*3 2.33 C 1.86667 km/h
282 08-01-2021 17:00:00 2.14167 C 5.33 g/m*3 2.14 C 0.8 km/h
283 08-01-2021 18:00:00 2.1 C 5.34 g/m*3 2.1 C 1.06667 km/h
284 08-01-2021 19:00:00 2.15833 C 5.39 g/m*3 2.16 C 0 km/h
285 08-01-2021 20:00:00 2.15833 C 5.39 g/m*3 2.16 C 0 km/h
286 08-01-2021 21:00:00 2.08333 C 5.36 g/m*3 2.08 C 1.73333 km/h
287 08-01-2021 22:00:00 1.64167 C 5.18 g/m*3 1.64 C 1.86667 km/h
288 08-01-2021 23:00:00 0.81667 C 4.89 g/m*3 0.82 C 0.66667 km/h
289 09-01-2021 00:00:00 0.69167 C 4.88 g/m*3 0.69 C 1.86667 km/h
290 09-01-2021 01:00:00 0.89167 C 4.95 g/m*3 0.89 C 0.8 km/h
291 09-01-2021 02:00:00 1 C 4.98 g/m*3 1 C 0.13333 km/h
292 09-01-2021 03:00:00 1.10833 C 5.02 g/m*3 1.11 C 0.66667 km/h
293 09-01-2021 04:00:00 0.85 C 4.95 g/m*3 0.85 C 0.93333 km/h
294 09-01-2021 05:00:00 0.9 C 5 g/m*3 0.9 C 0.26667 km/h
295 09-01-2021 06:00:00 0.94167 C 5.01 g/m*3 0.94 C 0.66667 km/h
296 09-01-2021 07:00:00 1.025 C 5.04 g/m*3 1.02 C 0.53333 km/h
297 09-01-2021 08:00:00 1.06667 C 5.05 g/m*3 1.07 C 0.8 km/h
298 09-01-2021 09:00:00 1.01667 C 4.99 g/m*3 1.02 C 0.26667 km/h
299 09-01-2021 10:00:00 0.91667 C 4.98 g/m*3 0.92 C 0.4 km/h
300 09-01-2021 11:00:00 1.10833 C 5.03 g/m*3 1.11 C 1.60833 km/h
Sensor: Nr:Datum:Temp:Abs-Feuchte:Windchill:Wind:
Aussen-T/F 301 09-01-2021 12:00:00 1.34167 C 5.07 g/m*3 1.34 C 2.41667 km/h
302 09-01-2021 13:00:00 2.15833 C 5.1 g/m*3 2.16 C 3.35 km/h
303 09-01-2021 14:00:00 2.875 C 5.14 g/m*3 2.88 C 3.2 km/h
304 09-01-2021 15:00:00 2.925 C 5.03 g/m*3 2.93 C 4.13333 km/h
305 09-01-2021 16:00:00 2.5 C 5.05 g/m*3 2.5 C 1.33333 km/h
306 09-01-2021 17:00:00 1.64167 C 4.93 g/m*3 1.64 C 0.4 km/h
307 09-01-2021 18:00:00 1.3 C 4.91 g/m*3 1.3 C 0 km/h
308 09-01-2021 19:00:00 1.26667 C 4.96 g/m*3 1.27 C 0 km/h
309 09-01-2021 20:00:00 1.16667 C 4.93 g/m*3 1.17 C 0 km/h
310 09-01-2021 21:00:00 1.09167 C 4.94 g/m*3 1.09 C 0 km/h
311 09-01-2021 22:00:00 1.19167 C 5 g/m*3 1.19 C 0 km/h
312 09-01-2021 23:00:00 1.25 C 5.02 g/m*3 1.25 C 0 km/h
313 10-01-2021 00:00:00 0.96667 C 4.92 g/m*3 0.97 C 0 km/h
314 10-01-2021 01:00:00 0.83333 C 4.9 g/m*3 0.83 C 0 km/h
315 10-01-2021 02:00:00 0.9 C 4.95 g/m*3 0.9 C 0 km/h
316 10-01-2021 03:00:00 0.95833 C 4.97 g/m*3 0.96 C 0 km/h
317 10-01-2021 04:00:00 0.88333 C 4.94 g/m*3 0.88 C 0 km/h
318 10-01-2021 05:00:00 0.7 C 4.88 g/m*3 0.7 C 0 km/h
319 10-01-2021 06:00:00 0.71667 C 4.89 g/m*3 0.72 C 0 km/h
320 10-01-2021 07:00:00 0.84167 C 4.93 g/m*3 0.84 C 0 km/h
321 10-01-2021 08:00:00 0.70833 C 4.88 g/m*3 0.71 C 0 km/h
322 10-01-2021 09:00:00 0.775 C 4.91 g/m*3 0.78 C 0 km/h
323 10-01-2021 10:00:00 1.24167 C 5.08 g/m*3 1.24 C 0 km/h
324 10-01-2021 11:00:00 1.775 C 5.22 g/m*3 1.78 C 0.8 km/h
325 10-01-2021 12:00:00 2.325 C 5.21 g/m*3 2.33 C 1.86667 km/h
Sensor: Nr:Datum:Temp:Abs-Feuchte:Windchill:Wind:
Aussen-T/F 326 10-01-2021 13:00:00 2.88333 C 5.12 g/m*3 2.88 C 1.33333 km/h
327 10-01-2021 14:00:00 3.21667 C 4.99 g/m*3 3.22 C 1.46667 km/h
328 10-01-2021 15:00:00 3.325 C 4.9 g/m*3 3.33 C 0.4 km/h
329 10-01-2021 16:00:00 2.80833 C 5.01 g/m*3 2.81 C 0.93333 km/h
330 10-01-2021 17:00:00 0.91667 C 4.55 g/m*3 0.92 C 4.26667 km/h
331 10-01-2021 18:00:00 -0.45833 C 4.28 g/m*3 -0.46 C 1.2 km/h
332 10-01-2021 19:00:00 -1.075 C 4.17 g/m*3 -1.08 C 0 km/h
333 10-01-2021 20:00:00 -1.65833 C 4.04 g/m*3 -1.66 C 0 km/h
334 10-01-2021 21:00:00 -2.08333 C 3.94 g/m*3 -2.08 C 0 km/h
335 10-01-2021 22:00:00 -2.35833 C 3.9 g/m*3 -2.36 C 0 km/h
336 10-01-2021 23:00:00 -2.70833 C 3.81 g/m*3 -2.71 C 0.13333 km/h
337 11-01-2021 00:00:00 -2.975 C 3.74 g/m*3 -2.98 C 0.13333 km/h
338 11-01-2021 01:00:00 -3.30833 C 3.65 g/m*3 -3.31 C 0.13333 km/h
339 11-01-2021 02:00:00 -2.94167 C 3.77 g/m*3 -2.94 C 0.13333 km/h
340 11-01-2021 03:00:00 -3.30833 C 3.65 g/m*3 -3.31 C 0 km/h
341 11-01-2021 04:00:00 -3.59167 C 3.58 g/m*3 -3.59 C 0 km/h
342 11-01-2021 05:00:00 -3.86667 C 3.51 g/m*3 -3.87 C 0 km/h
343 11-01-2021 06:00:00 -4.125 C 3.46 g/m*3 -4.13 C 0 km/h
344 11-01-2021 07:00:00 -3.925 C 3.53 g/m*3 -3.93 C 0.66667 km/h
345 11-01-2021 08:00:00 -3.36667 C 3.67 g/m*3 -3.37 C 1.2 km/h
346 11-01-2021 09:00:00 -2.6 C 3.88 g/m*3 -2.6 C 0.93333 km/h
347 11-01-2021 10:00:00 -1.30833 C 4.18 g/m*3 -3.24 C 5.35 km/h
348 11-01-2021 11:00:00 0.08333 C 4.32 g/m*3 -2.66 C 8.05 km/h
349 11-01-2021 12:00:00 1.01667 C 4.35 g/m*3 -2.32 C 10.88333 km/h
350 11-01-2021 13:00:00 1.825 C 4.43 g/m*3 -1.22 C 10.35 km/h
Sensor: Nr:Datum:Temp:Abs-Feuchte:Windchill:Wind:
Aussen-T/F 351 11-01-2021 14:00:00 2.26667 C 4.55 g/m*3 0.07 C 7.525 km/h
352 11-01-2021 15:00:00 2.375 C 4.68 g/m*3 2.38 C 3.74167 km/h
353 11-01-2021 16:00:00 2.33333 C 4.86 g/m*3 2.33 C 0.53333 km/h
354 11-01-2021 17:00:00 1.79167 C 4.85 g/m*3 1.79 C 2 km/h
355 11-01-2021 18:00:00 1.66667 C 4.82 g/m*3 1.67 C 1.86667 km/h
356 11-01-2021 19:00:00 1.76667 C 4.82 g/m*3 1.77 C 3.34167 km/h
357 11-01-2021 20:00:00 2 C 4.88 g/m*3 2 C 4.14167 km/h
358 11-01-2021 21:00:00 2.325 C 4.93 g/m*3 0.9 C 5.35833 km/h
359 11-01-2021 22:00:00 2.49167 C 5.01 g/m*3 0.73 C 6.3 km/h
360 11-01-2021 23:00:00 2.8 C 5.11 g/m*3 0.07 C 9.81667 km/h
361 12-01-2021 00:00:00 3 C 5.24 g/m*3 -0.24 C 12.35833 km/h
362 12-01-2021 01:00:00 3.26667 C 5.38 g/m*3 -0.65 C 16.63333 km/h
363 12-01-2021 02:00:00 3.34167 C 5.42 g/m*3 -0.23 C 14.63333 km/h
364 12-01-2021 03:00:00 3.51667 C 5.54 g/m*3 -0.02 C 14.63333 km/h
365 12-01-2021 04:00:00 3.725 C 5.59 g/m*3 -0.47 C 19.45 km/h
366 12-01-2021 05:00:00 3.875 C 5.63 g/m*3 -0.78 C 23.6 km/h
367 12-01-2021 06:00:00 3.85833 C 5.67 g/m*3 -0.74 C 23.04167 km/h
368 12-01-2021 07:00:00 3.79167 C 5.66 g/m*3 -0.78 C 22.64167 km/h
369 12-01-2021 08:00:00 3.95833 C 5.66 g/m*3 -0.91 C 25.86667 km/h
370 12-01-2021 09:00:00 4.14167 C 5.69 g/m*3 -0.76 C 26.69167 km/h
371 12-01-2021 10:00:00 4.41667 C 5.8 g/m*3 -0.2 C 24.66667 km/h
372 12-01-2021 11:00:00 4.68333 C 5.96 g/m*3 0.69 C 19.83333 km/h
373 12-01-2021 12:00:00 5.05 C 6.15 g/m*3 1.35 C 18.23333 km/h
374 12-01-2021 13:00:00 5.225 C 6.3 g/m*3 1.82 C 16.36667 km/h
375 12-01-2021 14:00:00 5.18333 C 6.47 g/m*3 2.75 C 10.61667 km/h
Sensor: Nr:Datum:Temp:Abs-Feuchte:Windchill:Wind:
Aussen-T/F 376 12-01-2021 15:00:00 5.40833 C 6.63 g/m*3 2.86 C 11.41667 km/h
377 12-01-2021 16:00:00 5.45 C 6.58 g/m*3 3.42 C 9.00833 km/h
378 12-01-2021 17:00:00 4.56667 C 6.12 g/m*3 2.88 C 7.10833 km/h
379 12-01-2021 18:00:00 3.25833 C 5.65 g/m*3 3.26 C 4.95 km/h
380 12-01-2021 19:00:00 2.45833 C 5.41 g/m*3 2.46 C 4.80833 km/h
381 12-01-2021 20:00:00 2.75 C 5.47 g/m*3 1.5 C 5.075 km/h
382 12-01-2021 21:00:00 3.05 C 5.45 g/m*3 1.61 C 5.64167 km/h
383 12-01-2021 22:00:00 2.96667 C 5.38 g/m*3 2.97 C 3.46667 km/h
384 12-01-2021 23:00:00 2.14167 C 5.21 g/m*3 2.14 C 2.8 km/h
385 13-01-2021 00:00:00 1.93333 C 5.2 g/m*3 1.93 C 2.8 km/h
386 13-01-2021 01:00:00 1.59167 C 5.1 g/m*3 1.59 C 4.275 km/h
387 13-01-2021 02:00:00 1.7 C 5.1 g/m*3 -0.8 C 8.2 km/h
388 13-01-2021 03:00:00 1.73333 C 5 g/m*3 -0.92 C 8.75833 km/h
389 13-01-2021 04:00:00 1.63333 C 4.91 g/m*3 -0.96 C 8.475 km/h
390 13-01-2021 05:00:00 1.66667 C 4.89 g/m*3 -1.07 C 9.01667 km/h
391 13-01-2021 06:00:00 1.775 C 4.92 g/m*3 -1.04 C 9.39167 km/h
392 13-01-2021 07:00:00 1.91667 C 4.92 g/m*3 -0.92 C 9.56667 km/h
393 13-01-2021 08:00:00 1.75833 C 4.93 g/m*3 -0.61 C 7.78333 km/h
394 13-01-2021 09:00:00 1.31667 C 4.9 g/m*3 -1.66 C 9.69167 km/h
395 13-01-2021 10:00:00 1.94167 C 5.14 g/m*3 -0.63 C 8.61667 km/h
396 13-01-2021 11:00:00 2.95 C 5.35 g/m*3 0.04 C 10.75833 km/h
397 13-01-2021 12:00:00 3.74167 C 5.45 g/m*3 0.59 C 12.76667 km/h
398 13-01-2021 13:00:00 4.15833 C 5.43 g/m*3 1.3 C 11.68333 km/h
399 13-01-2021 14:00:00 4.63333 C 5.3 g/m*3 1.98 C 11.15833 km/h
400 13-01-2021 15:00:00 4.05833 C 5.12 g/m*3 1.37 C 10.76667 km/h
Sensor: Nr:Datum:Temp:Abs-Feuchte:Windchill:Wind:
Aussen-T/F 401 13-01-2021 16:00:00 2.99167 C 5.01 g/m*3 0.57 C 8.75833 km/h
402 13-01-2021 17:00:00 2.39167 C 4.96 g/m*3 0.71 C 6.04167 km/h
403 13-01-2021 18:00:00 1.91667 C 4.95 g/m*3 1.92 C 2.53333 km/h
404 13-01-2021 19:00:00 1.8 C 5 g/m*3 1.8 C 4.26667 km/h
405 13-01-2021 20:00:00 2.03333 C 5.12 g/m*3 2.03 C 4.4 km/h
406 13-01-2021 21:00:00 2.49167 C 5.21 g/m*3 0.5 C 6.98333 km/h
407 13-01-2021 22:00:00 3.39167 C 5.18 g/m*3 1.5 C 7.11667 km/h
408 13-01-2021 23:00:00 3.725 C 5.2 g/m*3 1.69 C 7.8 km/h
409 14-01-2021 00:00:00 4.10833 C 5.45 g/m*3 1.67 C 9.68333 km/h
410 14-01-2021 01:00:00 4.05 C 5.8 g/m*3 1.79 C 8.86667 km/h
411 14-01-2021 02:00:00 3.76667 C 5.77 g/m*3 1.71 C 7.925 km/h
412 14-01-2021 03:00:00 3.56667 C 5.52 g/m*3 2.01 C 6.175 km/h
413 14-01-2021 04:00:00 3.275 C 5.19 g/m*3 1.59 C 6.44167 km/h
414 14-01-2021 05:00:00 2.61667 C 4.71 g/m*3 2.62 C 3.74167 km/h
415 14-01-2021 06:00:00 2.05 C 4.72 g/m*3 2.05 C 0.66667 km/h
416 14-01-2021 07:00:00 1.51667 C 4.63 g/m*3 1.52 C 0.66667 km/h
417 14-01-2021 08:00:00 1.36667 C 4.61 g/m*3 1.37 C 0.93333 km/h
418 14-01-2021 09:00:00 1.375 C 4.72 g/m*3 1.38 C 0.13333 km/h
419 14-01-2021 10:00:00 1.90833 C 4.8 g/m*3 1.91 C 0.53333 km/h
420 14-01-2021 11:00:00 2.425 C 4.72 g/m*3 1.02 C 5.34167 km/h
421 14-01-2021 12:00:00 2.625 C 4.65 g/m*3 0.94 C 6.15 km/h
422 14-01-2021 13:00:00 2.95 C 4.69 g/m*3 1.26 C 6.3 km/h
423 14-01-2021 14:00:00 3.11667 C 4.67 g/m*3 3.12 C 3.33333 km/h
424 14-01-2021 15:00:00 3.09167 C 4.7 g/m*3 3.09 C 2.13333 km/h
425 14-01-2021 16:00:00 2.63333 C 4.77 g/m*3 2.63 C 0.13333 km/h
Sensor: Nr:Datum:Temp:Abs-Feuchte:Windchill:Wind:
Aussen-T/F 426 14-01-2021 17:00:00 1.36667 C 4.6 g/m*3 1.37 C 1.06667 km/h
427 14-01-2021 18:00:00 0.89167 C 4.53 g/m*3 0.89 C 1.73333 km/h
428 14-01-2021 19:00:00 0.275 C 4.42 g/m*3 0.28 C 1.06667 km/h
429 14-01-2021 20:00:00 0.15833 C 4.46 g/m*3 0.16 C 1.875 km/h
430 14-01-2021 21:00:00 0.08333 C 4.39 g/m*3 0.08 C 1.06667 km/h
431 14-01-2021 22:00:00 -0.375 C 4.25 g/m*3 -0.38 C 1.06667 km/h
432 14-01-2021 23:00:00 -0.70833 C 4.15 g/m*3 -0.71 C 2 km/h
433 15-01-2021 00:00:00 -1.05833 C 4.06 g/m*3 -1.06 C 0.8 km/h
434 15-01-2021 01:00:00 -1.55 C 3.96 g/m*3 -1.55 C 0.8 km/h
435 15-01-2021 02:00:00 -2.04167 C 3.82 g/m*3 -2.04 C 0.66667 km/h
436 15-01-2021 03:00:00 -2.425 C 3.77 g/m*3 -2.42 C 0.13333 km/h
437 15-01-2021 04:00:00 -2.26667 C 3.85 g/m*3 -2.27 C 0.4 km/h
438 15-01-2021 05:00:00 -1.65833 C 4 g/m*3 -1.66 C 0 km/h
439 15-01-2021 06:00:00 -1.16667 C 4.1 g/m*3 -1.17 C 0 km/h
440 15-01-2021 07:00:00 -0.81667 C 4.17 g/m*3 -0.82 C 0 km/h
441 15-01-2021 08:00:00 -0.66667 C 4.2 g/m*3 -0.67 C 0 km/h
442 15-01-2021 09:00:00 -0.28333 C 4.29 g/m*3 -0.28 C 0 km/h
443 15-01-2021 10:00:00 -0.18333 C 4.28 g/m*3 -0.18 C 0.4 km/h
444 15-01-2021 11:00:00 0.10833 C 4.17 g/m*3 0.11 C 4.14167 km/h
445 15-01-2021 12:00:00 2.05 C 4.29 g/m*3 -0.75 C 9.55 km/h
446 15-01-2021 13:00:00 2.35 C 4.43 g/m*3 -0.26 C 9.00833 km/h
447 15-01-2021 14:00:00 2.45 C 4.52 g/m*3 0.24 C 7.65 km/h
448 15-01-2021 15:00:00 2.55833 C 4.63 g/m*3 0.62 C 6.84167 km/h
449 15-01-2021 16:00:00 2.325 C 4.66 g/m*3 0.35 C 6.84167 km/h
450 15-01-2021 17:00:00 2 C 4.58 g/m*3 2 C 2.13333 km/h
Sensor: Nr:Datum:Temp:Abs-Feuchte:Windchill:Wind:
Aussen-T/F 451 15-01-2021 18:00:00 1.71667 C 4.58 g/m*3 1.72 C 3.34167 km/h
452 15-01-2021 19:00:00 1.51667 C 4.66 g/m*3 1.52 C 3.73333 km/h
453 15-01-2021 20:00:00 1.39167 C 4.62 g/m*3 1.39 C 4 km/h
454 15-01-2021 21:00:00 1.24167 C 4.6 g/m*3 1.24 C 3.75 km/h
455 15-01-2021 22:00:00 1.11667 C 4.55 g/m*3 1.12 C 3.74167 km/h
456 15-01-2021 23:00:00 1.075 C 4.59 g/m*3 1.08 C 4 km/h
457 16-01-2021 00:00:00 0.85833 C 4.49 g/m*3 0.86 C 2.40833 km/h
458 16-01-2021 01:00:00 0.9 C 4.14 g/m*3 -1.21 C 6.59167 km/h
459 16-01-2021 02:00:00 0.79167 C 4.05 g/m*3 0.79 C 4.4 km/h
460 16-01-2021 03:00:00 0.625 C 4.07 g/m*3 0.63 C 2.4 km/h
461 16-01-2021 04:00:00 0.28333 C 4.1 g/m*3 0.28 C 0.13333 km/h
462 16-01-2021 05:00:00 0.09167 C 4.16 g/m*3 0.09 C 0.93333 km/h
463 16-01-2021 06:00:00 0.14167 C 4.15 g/m*3 0.14 C 0.8 km/h
464 16-01-2021 07:00:00 -0.05 C 4.16 g/m*3 -0.05 C 0.13333 km/h
465 16-01-2021 08:00:00 -0.15 C 4.19 g/m*3 -0.15 C 0 km/h
466 16-01-2021 09:00:00 0.04167 C 4.24 g/m*3 0.04 C 0.4 km/h
467 16-01-2021 10:00:00 0.83333 C 4.19 g/m*3 0.83 C 2.53333 km/h
468 16-01-2021 11:00:00 1.28333 C 4.21 g/m*3 1.28 C 4.675 km/h
469 16-01-2021 12:00:00 1.55 C 4.13 g/m*3 -0.45 C 6.55833 km/h
470 16-01-2021 13:00:00 1.6 C 4.05 g/m*3 0.19 C 5.09167 km/h
471 16-01-2021 14:00:00 1.4 C 3.87 g/m*3 1.4 C 3.33333 km/h
472 16-01-2021 15:00:00 1.25833 C 3.79 g/m*3 1.26 C 4.01667 km/h
473 16-01-2021 16:00:00 0.84167 C 3.8 g/m*3 0.84 C 1.06667 km/h
474 16-01-2021 17:00:00 -0.04167 C 3.92 g/m*3 -0.04 C 0 km/h
475 16-01-2021 18:00:00 -0.38333 C 3.93 g/m*3 -0.38 C 0 km/h
Sensor: Nr:Datum:Temp:Abs-Feuchte:Windchill:Wind:
Aussen-T/F 476 16-01-2021 19:00:00 -0.18333 C 4.02 g/m*3 -0.18 C 0.4 km/h
477 16-01-2021 20:00:00 -0.00833 C 4.25 g/m*3 -0.01 C 0.93333 km/h
478 16-01-2021 21:00:00 -0.28333 C 4.37 g/m*3 -0.28 C 0.4 km/h
479 16-01-2021 22:00:00 -0.44167 C 4.39 g/m*3 -0.44 C 0.53333 km/h
480 16-01-2021 23:00:00 -0.68333 C 4.34 g/m*3 -0.68 C 0.26667 km/h
481 17-01-2021 00:00:00 -0.78333 C 4.31 g/m*3 -0.78 C 0 km/h
482 17-01-2021 01:00:00 -0.975 C 4.26 g/m*3 -0.98 C 0 km/h
483 17-01-2021 02:00:00 -1.16667 C 4.2 g/m*3 -1.17 C 0 km/h
484 17-01-2021 03:00:00 -1.2 C 4.19 g/m*3 -1.2 C 0 km/h
485 17-01-2021 04:00:00 -1.16667 C 4.24 g/m*3 -1.17 C 0 km/h
486 17-01-2021 05:00:00 -1.03333 C 4.28 g/m*3 -1.03 C 0 km/h
487 17-01-2021 06:00:00 -0.85833 C 4.34 g/m*3 -0.86 C 0.13333 km/h
488 17-01-2021 07:00:00 -0.75 C 4.37 g/m*3 -0.75 C 0 km/h
489 17-01-2021 08:00:00 -0.65833 C 4.4 g/m*3 -0.66 C 0 km/h
490 17-01-2021 09:00:00 -0.25 C 4.53 g/m*3 -0.25 C 0.53333 km/h
491 17-01-2021 10:00:00 0.23333 C 4.68 g/m*3 0.23 C 0.4 km/h
492 17-01-2021 11:00:00 0.68333 C 4.82 g/m*3 0.68 C 0 km/h
493 17-01-2021 12:00:00 1.075 C 4.94 g/m*3 1.08 C 0 km/h
494 17-01-2021 13:00:00 1.34167 C 5 g/m*3 1.34 C 2.26667 km/h
495 17-01-2021 14:00:00 1.39167 C 5.06 g/m*3 1.39 C 2.4 km/h
496 17-01-2021 15:00:00 1.6 C 5.14 g/m*3 1.6 C 0.13333 km/h
497 17-01-2021 16:00:00 1.50833 C 5.11 g/m*3 1.51 C 0.4 km/h
498 17-01-2021 17:00:00 1.58333 C 5.18 g/m*3 1.58 C 1.46667 km/h
499 17-01-2021 18:00:00 1.69167 C 5.22 g/m*3 1.69 C 2.4 km/h
500 17-01-2021 19:00:00 1.8 C 5.26 g/m*3 1.8 C 2.13333 km/h
Sensor: Nr:Datum:Temp:Abs-Feuchte:Windchill:Wind:
Aussen-T/F 501 17-01-2021 20:00:00 1.86667 C 5.29 g/m*3 1.87 C 2.66667 km/h
502 17-01-2021 21:00:00 1.95833 C 5.32 g/m*3 1.96 C 2.13333 km/h
503 17-01-2021 22:00:00 2.11667 C 5.41 g/m*3 2.12 C 1.06667 km/h
504 17-01-2021 23:00:00 2.275 C 5.49 g/m*3 2.28 C 2 km/h

Maximal/Minimal-Werte vom 23.02.2003 - 03.08.2020

Sensor Min Max Avg
Temp
(Aussen-T/F)
-16.4 °C
20-12-2009  01:30:01
40.4 °C
25-07-2019  16:20:00
11.23 °C

Die Daten stammen von einer Davis Vantage Pro 2 Wetter-Station und werden unter Linux mit der Software wview2wettercgi und aufbereitet. Alle Angaben erfolgen ohne Gewähr für ihre Vollständigkeit oder Richtigkeit.
Kontakt: Rainer Krienke krienke@uni-koblenz.de . Meine Webseiten an der Uni Koblenz oder privat.
Version: $Revision: 0.78 $